Fayetteville, NC

6:45 AM EDT on July 26, 2017 (GMT -0400)
Fayetteville Regional-Grannis

Weather History for KFAY - June, 2013

Change the Weather History Date:

Friday, June 21, 2013

  Actual Average Record
Temperature  
Mean Temperature 73 °F 79 °F  
Max Temperature 86 °F 90 °F 105 °F (1933)
Min Temperature 59 °F 69 °F 52 °F (1966)
Degree Days  
Heating Degree Days 0 0  
Month to date heating degree days 0 0  
Since 1 June heating degree days 0 0  
Since 1 July heating degree days 2762 2732  
Cooling Degree Days 8 14  
Month to date cooling degree days 258 259  
Year to date cooling degree days 507 543  
Since 1 June cooling degree days 258 259  
Growing Degree Days 22 (Base 50)    
Moisture  
Dew Point 60 °F    
Average Humidity 67    
Maximum Humidity 93    
Minimum Humidity 40    
Precipitation  
Precipitation 0.00 in 0.15 in 2.58 in (1920)
Month to date precipitation 6.41 2.99  
Year to date precipitation 19.75 18.66  
Sea Level Pressure  
Sea Level Pressure 30.19 in    
Wind  
Wind Speed 7 mph (NNE)    
Max Wind Speed 14 mph    
Max Gust Speed 17 mph    
Visibility 10 miles    
Events      
T = Trace of Precipitation, MM = Missing Value Source: NWS Daily Summary

Daily Weather History Graph

Daily Weather History Graph

Search for Another Location

Airport or City:

Trip Planner

Search our weather history database for the weather conditions in past years. The results will help you decide how hot, cold, wet, or windy it might be!

Date:

Astronomy

Jun. 21, 2013 Rise Set
Actual Time 6:02 AM EDT 8:32 PM EDT
Civil Twilight 5:32 AM EDT 9:02 PM EDT
Nautical Twilight 4:55 AM EDT 9:39 PM EDT
Astronomical Twilight 4:14 AM EDT 10:19 PM EDT
Moon 6:43 PM EDT (6/21) 4:12 AM EDT (6/21)
Length of Visible Light 15h 30m
Length of Day
14h 30m
Waxing Gibbous, 95% of the Moon is Illuminated
Jun 21
Waxing Gibbous
Jun 23
Full
Jun 30
Last Quarter
Jul 8
New
Jul 15
First Quarter

Hourly Weather History & Observations

Time (EDT) Temp. Heat Index Dew Point Humidity Pressure Visibility Wind Dir Wind Speed Gust Speed Precip Events Conditions
12:53 AM 66.9 °F - 57.0 °F 70% 30.20 in 10.0 mi NE 4.6 mph - N/A   Clear
1:53 AM 64.0 °F - 57.0 °F 78% 30.19 in 10.0 mi NNE 4.6 mph - N/A   Clear
2:53 AM 63.0 °F - 57.0 °F 81% 30.19 in 10.0 mi NE 4.6 mph - N/A   Clear
3:53 AM 60.1 °F - 57.0 °F 90% 30.19 in 10.0 mi North 5.8 mph - N/A   Clear
4:53 AM 59.0 °F - 57.0 °F 93% 30.19 in 10.0 mi NNE 4.6 mph - N/A   Clear
5:53 AM 59.0 °F - 57.0 °F 93% 30.19 in 10.0 mi NNE 8.1 mph - N/A   Clear
6:53 AM 61.0 °F - 57.9 °F 90% 30.20 in 10.0 mi NNE 10.4 mph - N/A   Clear
7:53 AM 64.0 °F - 60.1 °F 87% 30.22 in 10.0 mi NNE 9.2 mph - N/A   Clear
8:53 AM 69.1 °F - 60.1 °F 73% 30.22 in 10.0 mi NNE 6.9 mph - N/A   Clear
9:53 AM 73.0 °F - 57.0 °F 57% 30.21 in 10.0 mi NNE 8.1 mph - N/A   Clear
10:53 AM 75.9 °F - 57.0 °F 52% 30.22 in 10.0 mi North 8.1 mph - N/A   Clear
11:53 AM 80.1 °F 80.1 °F 55.0 °F 42% 30.22 in 10.0 mi NE 10.4 mph - N/A   Clear
12:53 PM 82.0 °F 81.6 °F 55.9 °F 41% 30.21 in 10.0 mi NE 5.8 mph 16.1 mph N/A   Clear
1:53 PM 82.9 °F 82.6 °F 57.9 °F 42% 30.20 in 10.0 mi NE 8.1 mph - N/A   Partly Cloudy
2:53 PM 82.9 °F 83.2 °F 60.1 °F 46% 30.19 in 10.0 mi NNE 11.5 mph 16.1 mph N/A   Scattered Clouds
3:53 PM 84.0 °F 84.4 °F 61.0 °F 46% 30.18 in 10.0 mi NE 6.9 mph - N/A   Mostly Cloudy
4:53 PM 84.9 °F 85.4 °F 62.1 °F 46% 30.16 in 10.0 mi NE 9.2 mph - N/A   Partly Cloudy
5:53 PM 84.0 °F 84.9 °F 63.0 °F 49% 30.15 in 10.0 mi NE 9.2 mph - N/A   Clear
6:53 PM 82.9 °F 84.4 °F 64.0 °F 53% 30.15 in 10.0 mi NE 9.2 mph - N/A   Clear
7:53 PM 81.0 °F 82.5 °F 64.0 °F 56% 30.14 in 10.0 mi NE 8.1 mph - N/A   Clear
8:53 PM 75.9 °F - 64.9 °F 69% 30.15 in 10.0 mi NNE 5.8 mph - N/A   Mostly Cloudy
9:53 PM 75.9 °F - 66.0 °F 71% 30.16 in 10.0 mi NNE 4.6 mph - N/A   Overcast
10:53 PM 77.0 °F - 66.0 °F 69% 30.17 in 10.0 mi NNE 6.9 mph - N/A   Overcast
11:53 PM 75.0 °F - 64.9 °F 71% 30.16 in 10.0 mi NE 6.9 mph - N/A   Overcast